User: anonymous
Location: Unspecified
(0.0000°N, 0.0000°E)
Time: 04:17:39
(UTC+00:00)
Language:

SO-67 - Orbit

View from above orbital plane
View from above orbital plane
View from above satellite
View from above satellite

Ground track
Ground track

The orbit data is extracted from the following two-line orbital elements,

1 35870U 09049F   14265.48540947  .00008488  00000-0  25719-3 0  5344
2 35870 097.1566 283.7382 0003789 104.3917 024.0657 15.34375965278968
Epoch (UTC): 22 September 2014 11:38:59
Eccentricity: 0.0003789
inclination: 97.1566°
perigee height: 460 km
apogee height: 465 km
right ascension of ascending node: 283.7382°
argument of perigee: 104.3917°
revolutions per day: 15.34375965
mean anomaly at epoch: 24.0657°
orbit number at epoch: 27896

The dashed part of the orbit path shows where the satellite is in the earth's shadow,  

DLR